Tracking 31027 objects as of 19-Jul-2025
HD Live streaming from Space Station
objects crossing your sky now

SL-8 R/B

Track SL-8 R/B now!
10-day predictions


NORAD ID: 13066
Int'l Code: 1982-012B
Perigee: 949.5 km
Apogee: 1,011.3 km
Inclination: 82.9 °
Period: 104.5 minutes
Semi major axis: 7351 km
RCS: 4.3932 m2 (large)
Launch date: February 17, 1982
Source: Commonwealth of Independent States (former USSR) (CIS)
Launch site: PLESETSK MISSILE AND SPACE COMPLEX (PKMTR)

Note: This is a ROCKET BODY
Your satellite tracking list
FENGYUN 1C DEB
Track 1 satellite(s)




NASA's NSSDC Master Catalog

Two Line Element Set (TLE):
1 13066U 82012B   25199.90142216  .00000116  00000-0  10161-3 0  9990
2 13066  82.8977 169.8828 0042028 252.5111 135.8487 13.77360378181780
Source of the keplerian elements: AFSPC